This is the latest recevied weather packets stored in our database for station/object KF0ZH. If no packets are shown the sender has not sent any weather packets the latest 10 day(s).
| Time | Temp. | Humidity | Pressure | Rain* | Wind** | Luminosity | Snow |
|---|---|---|---|---|---|---|---|
| 1778104617 | 8.33° C | 58% | 1014.7 hPa | 0 mm | 2.24 m/s, 2° | - | - |
| 1778104319 | 8.33° C | 59% | 1014.7 hPa | 0 mm | 0 m/s | - | - |
| 1778103717 | 7.78° C | 61% | 1014.8 hPa | 0 mm | 0.89 m/s, 309° | - | - |
| 1778103118 | 7.78° C | 60% | 1015 hPa | 0 mm | 2.24 m/s, 288° | - | - |
| 1778102817 | 7.78° C | 60% | 1015.1 hPa | 0 mm | 1.79 m/s, 284° | - | - |
| 1778102520 | 7.78° C | 60% | 1015.1 hPa | 0 mm | 0.89 m/s, 2° | - | - |
| 1778102218 | 7.78° C | 60% | 1015.1 hPa | 0 mm | 3.13 m/s, 234° | - | - |
| 1778101918 | 7.78° C | 60% | 1015.2 hPa | 0 mm | 1.34 m/s, 275° | - | - |
| 1778101618 | 7.78° C | 61% | 1015.2 hPa | 0 mm | 2.68 m/s, 275° | - | - |
| 1778101317 | 7.22° C | 61% | 1015.2 hPa | 0 mm | 0 m/s | - | - |
| 1778101017 | 7.22° C | 61% | 1015.4 hPa | 0 mm | 2.24 m/s, 274° | - | - |
| 1778100717 | 7.22° C | 61% | 1015.4 hPa | 0 mm | 0.45 m/s, 257° | - | - |
| 1778100417 | 7.22° C | 62% | 1015.4 hPa | 0 mm | 0 m/s | - | - |
| 1778099817 | 7.22° C | 63% | 1015.5 hPa | 0 mm | 0 m/s | - | - |
| 1778099521 | 7.22° C | 63% | 1015.6 hPa | 0 mm | 0 m/s | - | - |
| 1778099217 | 6.67° C | 64% | 1015.6 hPa | 0 mm | 2.68 m/s, 285° | - | - |
| 1778098917 | 6.67° C | 63% | 1015.7 hPa | 0 mm | 1.79 m/s, 296° | - | - |
| 1778098616 | 6.67° C | 63% | 1015.6 hPa | 0 mm | 0 m/s | - | - |
| 1778098319 | 7.22° C | 63% | 1015.5 hPa | 0 mm | 0 m/s | - | - |
| 1778098023 | 7.22° C | 63% | 1015.7 hPa | 0 mm | 1.79 m/s, 337° | - | - |
| 1778097724 | 6.67° C | 65% | 1015.7 hPa | 0 mm | 0 m/s | - | - |
| 1778097417 | 6.67° C | 65% | 1015.7 hPa | 0 mm | 0 m/s | - | - |
| 1778097163 | 6.67° C | 66% | 1015.7 hPa | 0 mm | 2.24 m/s, 246° | - | - |
| 1778097128 | 6.67° C | 66% | 1015.7 hPa | 0 mm | 2.24 m/s, 246° | - | - |
| 1778096817 | 6.67° C | 66% | 1015.7 hPa | 0 mm | 2.24 m/s, 243° | - | - |
* Rain latest hour (hover to see other rain measurements)
** Current wind speed in m/s (hover to see current wind gust speed)